EW4760 Weather Reports


Display with metric or nautical units.
time (UTC)temp
F
wind
direction
speed
MPH
gust
MPH
rain 1hr
in
rain 24hr
in
rain mn
in
humidity
%
barometer
mb
20260507114001 42 181 3.0 9.0 0.00 0.00 0.00 88 1012.9
20260507113501 42 240 2.0 9.0 0.00 0.00 0.00 87 1012.9
20260507113002 42 76 2.0 5.0 0.00 0.00 0.00 87 1012.9
20260507112501 42 233 3.0 5.0 0.00 0.00 0.00 87 1012.9
20260507112001 42 238 2.0 5.0 0.00 0.00 0.00 87 1012.9
20260507111500 42 272 2.0 5.0 0.00 0.00 0.00 87 1012.9
20260507111000 42 239 2.0 5.0 0.00 0.00 0.00 87 1012.9
20260507110501 42 227 3.0 7.0 0.00 0.00 0.00 87 1013.0
20260507110005 42 141 2.0 7.0 0.00 0.00 0.00 87 1012.9
20260507105503 42 242 2.0 6.0 0.00 0.00 0.00 87 1012.9
20260507105004 42 229 2.0 6.0 0.00 0.00 0.00 86 1012.9
20260507104504 42 225 2.0 6.0 0.00 0.00 0.00 86 1013.0
20260507104003 42 245 2.0 5.0 0.00 0.00 0.00 86 1013.0
20260507103502 42 238 2.0 6.0 0.00 0.00 0.00 86 1013.0
20260507103004 42 268 2.0 6.0 0.00 0.00 0.00 86 1013.0
20260507102503 42 248 3.0 7.0 0.00 0.00 0.00 86 1013.0
20260507102003 42 143 3.0 7.0 0.00 0.00 0.00 86 1012.9
20260507101504 42 173 2.0 6.0 0.00 0.00 0.00 85 1013.0
20260507101003 42 234 2.0 7.0 0.00 0.00 0.00 85 1013.1
20260507100503 42 198 3.0 7.0 0.00 0.00 0.00 85 1013.1
20260507100005 42 236 2.0 6.0 0.00 0.00 0.00 85 1013.1
20260507095504 42 219 2.0 7.0 0.00 0.00 0.00 85 1013.2
20260507095234 42 242 2.0 7.0 0.00 0.00 0.00 85 1013.2
20260507094504 42 275 2.0 7.0 0.00 0.00 0.00 84 1013.2
20260507094003 42 233 2.0 7.0 0.00 0.00 0.00 84 1013.3
20260507093503 42 233 2.0 5.0 0.00 0.00 0.00 84 1013.2
20260507093005 42 247 2.0 4.0 0.00 0.00 0.00 83 1013.3
20260507092504 42 229 2.0 4.0 0.00 0.00 0.00 83 1013.3
20260507092004 42 246 1.0 4.0 0.00 0.00 0.00 83 1013.4
20260507091503 43 170 1.0 4.0 0.00 0.00 0.00 82 1013.4
20260507091235 43 184 1.0 4.0 0.00 0.00 0.00 82 1013.5
20260507090503 43 234 2.0 5.0 0.00 0.00 0.00 82 1013.5
20260507090005 43 215 2.0 6.0 0.00 0.00 0.00 82 1013.5
20260507085504 43 238 2.0 6.0 0.00 0.00 0.00 82 1013.6
20260507085004 43 237 2.0 5.0 0.00 0.00 0.00 82 1013.6
20260507084459 43 217 2.0 5.0 0.00 0.00 0.00 82 1013.7
20260507083953 43 234 2.0 5.0 0.00 0.00 0.00 82 1013.7
20260507083447 43 224 2.0 4.0 0.00 0.00 0.00 82 1013.8
20260507083219 43 227 2.0 7.0 0.00 0.00 0.00 81 1013.8
20260507082715 43 241 2.0 7.0 0.00 0.00 0.00 81 1013.9
20260507081945 43 212 2.0 5.0 0.00 0.00 0.00 81 1013.9
20260507081445 43 229 2.0 5.0 0.00 0.00 0.00 81 1014.0
20260507080946 43 226 1.0 5.0 0.00 0.00 0.00 81 1014.0
20260507080446 43 228 1.0 4.0 0.00 0.00 0.00 81 1014.1
20260507075943 43 200 0.0 3.0 0.00 0.00 0.00 80 1014.2
20260507075443 43 172 1.0 3.0 0.00 0.00 0.00 79 1014.3
20260507074943 43 210 1.0 2.0 0.00 0.00 0.00 79 1014.3
20260507074444 43 140 1.0 3.0 0.00 0.00 0.00 79 1014.4
20260507073943 43 117 1.0 3.0 0.00 0.00 0.00 78 1014.4
20260507073441 43 212 1.0 3.0 0.00 0.00 0.00 78 1014.4
20260507073209 43 224 0.0 2.0 0.00 0.00 0.00 78 1014.6
20260507072439 43 224 0.0 3.0 0.00 0.00 0.00 77 1014.7
20260507071939 43 193 0.0 3.0 0.00 0.00 0.00 76 1014.7
20260507071437 43 245 0.0 2.0 0.00 0.00 0.00 76 1014.7
20260507070936 43 264 0.0 2.0 0.00 0.00 0.00 75 1014.8
20260507070436 43 198 0.0 3.0 0.00 0.00 0.00 75 1014.9
20260507065932 43 252 0.0 3.0 0.00 0.00 0.00 74 1014.9
20260507065431 43 233 0.0 2.0 0.00 0.00 0.00 73 1015.0
20260507064931 44 215 1.0 2.0 0.00 0.00 0.00 72 1015.1
20260507064431 44 205 1.0 3.0 0.00 0.00 0.00 72 1015.1
20260507063931 44 83 1.0 3.0 0.00 0.00 0.00 71 1015.2
20260507063432 44 200 1.0 3.0 0.00 0.00 0.00 71 1015.2
20260507063202 44 207 0.0 3.0 0.00 0.00 0.00 69 1015.2
20260507062432 44 217 0.0 3.0 0.00 0.00 0.00 69 1015.3
20260507061931 44 245 0.0 3.0 0.00 0.00 0.00 68 1015.3
20260507061431 44 164 0.0 2.0 0.00 0.00 0.00 68 1015.2
20260507060932 44 240 0.0 3.0 0.00 0.00 0.00 66 1015.3
20260507060432 44 161 1.0 4.0 0.00 0.00 0.00 66 1015.3
20260507055931 44 194 1.0 5.0 0.00 0.00 0.00 65 1015.4
20260507055431 44 234 1.0 5.0 0.00 0.00 0.00 64 1015.3
20260507054931 44 228 0.0 4.0 0.00 0.00 0.00 63 1015.4
20260507054431 44 205 1.0 4.0 0.00 0.00 0.00 62 1015.3
20260507053931 45 178 1.0 3.0 0.00 0.00 0.00 61 1015.3
20260507053431 45 227 0.0 3.0 0.00 0.00 0.00 60 1015.4
20260507052932 45 158 0.0 2.0 0.00 0.00 0.00 59 1015.4
20260507052429 45 161 1.0 3.0 0.00 0.00 0.00 58 1015.4
20260507051929 46 252 1.0 3.0 0.00 0.00 0.00 57 1015.4
20260507051429 46 226 1.0 4.0 0.00 0.00 0.00 56 1015.4
20260507050929 46 233 1.0 4.0 0.00 0.00 0.00 55 1015.5
20260507050429 46 206 1.0 2.0 0.00 0.00 0.00 54 1015.5
20260507045928 46 183 1.0 2.0 0.00 0.00 0.00 53 1015.5
20260507045429 47 217 1.0 4.0 0.00 0.00 0.00 53 1015.5
20260507044929 47 245 1.0 5.0 0.00 0.00 0.00 53 1015.6
20260507044428 47 228 1.0 5.0 0.00 0.00 0.00 53 1015.6
20260507043929 47 224 1.0 3.0 0.00 0.00 0.00 52 1015.6
20260507043429 47 244 0.0 3.0 0.00 0.00 0.00 52 1015.6
20260507042929 47 250 0.0 2.0 0.00 0.00 0.00 51 1015.6
20260507042430 48 250 0.0 2.0 0.00 0.00 0.00 50 1015.6
20260507041929 48 250 0.0 2.0 0.00 0.00 0.00 49 1015.6
20260507041429 48 250 1.0 2.0 0.00 0.00 0.00 48 1015.7
20260507040928 48 250 0.0 2.0 0.00 0.00 0.00 48 1015.7
20260507040428 48 250 0.0 2.0 0.00 0.00 0.00 48 1015.7
20260507035928 48 250 0.0 2.0 0.00 0.00 0.00 49 1015.7
20260507035430 48 251 0.0 3.0 0.00 0.00 0.00 50 1015.7
20260507035201 47 252 0.0 3.0 0.00 0.00 0.00 51 1015.8
20260507034429 47 255 0.0 1.0 0.00 0.00 0.00 51 1015.8
20260507033929 47 255 0.0 1.0 0.00 0.00 0.00 51 1015.8
20260507033428 47 255 0.0 1.0 0.00 0.00 0.00 50 1015.8
20260507032929 47 255 0.0 1.0 0.00 0.00 0.00 49 1015.9
20260507032432 47 255 0.0 1.0 0.00 0.00 0.00 49 1015.8
20260507031932 47 255 0.0 1.0 0.00 0.00 0.00 49 1015.8
20260507031432 47 255 0.0 1.0 0.00 0.00 0.00 49 1015.9
20260507030931 47 255 0.0 1.0 0.00 0.00 0.00 49 1015.9
20260507030431 47 255 0.0 0.0 0.00 0.00 0.00 49 1015.9
20260507025930 47 255 0.0 0.0 0.00 0.00 0.00 49 1015.9
20260507025432 47 255 0.0 0.0 0.00 0.00 0.00 49 1015.9
20260507024932 47 255 0.0 0.0 0.00 0.00 0.00 50 1015.8
20260507024429 47 255 0.0 0.0 0.00 0.00 0.00 51 1015.8
20260507024201 47 255 0.0 0.0 0.00 0.00 0.00 49 1015.8
20260507023429 48 255 0.0 0.0 0.00 0.00 0.00 48 1015.8
20260507022928 48 255 0.0 0.0 0.00 0.00 0.00 48 1015.7
20260507022429 48 255 0.0 0.0 0.00 0.00 0.00 48 1015.7
20260507021929 49 255 0.0 0.0 0.00 0.00 0.00 47 1015.6
20260507021429 49 255 0.0 0.0 0.00 0.00 0.00 47 1015.5
20260507020929 49 255 0.0 0.0 0.00 0.00 0.00 47 1015.5
20260507020428 50 255 0.0 0.0 0.00 0.00 0.00 46 1015.5
20260507015929 50 255 0.0 0.0 0.00 0.00 0.00 46 1015.5
20260507015430 51 255 0.0 0.0 0.00 0.00 0.00 45 1015.5
20260507014929 52 255 0.0 0.0 0.00 0.00 0.00 44 1015.5
20260507014700 53 255 0.0 0.0 0.00 0.00 0.00 42 1015.5
20260507013929 54 255 0.0 0.0 0.00 0.00 0.00 40 1015.4
20260507013429 55 255 0.0 1.0 0.00 0.00 0.00 39 1015.4
20260507012929 56 255 0.0 1.0 0.00 0.00 0.00 36 1015.4
20260507012429 56 255 0.0 1.0 0.00 0.00 0.00 36 1015.4
20260507011929 57 255 0.0 3.0 0.00 0.00 0.00 35 1015.4
20260507011428 57 252 1.0 3.0 0.00 0.00 0.00 34 1015.4
20260507010923 58 307 1.0 3.0 0.00 0.00 0.00 33 1015.4
20260507010647 59 316 1.0 3.0 0.00 0.00 0.00 32 1015.4
20260507005910 59 248 2.0 5.0 0.00 0.00 0.00 32 1015.5
20260507005411 60 321 1.0 5.0 0.00 0.00 0.00 31 1015.5
20260507004909 60 324 1.0 3.0 0.00 0.00 0.00 32 1015.5
20260507004641 60 271 1.0 5.0 0.00 0.00 0.00 32 1015.5
20260507003909 60 270 2.0 5.0 0.00 0.00 0.00 31 1015.6
20260507003410 60 331 2.0 8.0 0.00 0.00 0.00 31 1015.5
20260507002909 61 339 2.0 8.0 0.00 0.00 0.00 31 1015.5
20260507002407 61 352 2.0 8.0 0.00 0.00 0.00 30 1015.6
20260507001905 60 339 3.0 8.0 0.00 0.00 0.00 30 1015.7
20260507001405 61 334 2.0 7.0 0.00 0.00 0.00 29 1015.6
20260507000905 62 326 2.0 5.0 0.00 0.00 0.00 30 1015.7
20260507000405 62 311 2.0 6.0 0.00 0.00 0.00 32 1015.7
20260506235905 61 339 2.0 6.0 0.00 0.00 0.00 31 1015.7
20260506235401 61 247 3.0 7.0 0.00 0.00 0.00 30 1015.8
20260506234901 62 327 3.0 7.0 0.00 0.00 0.00 29 1015.8
20260506234401 62 330 2.0 7.0 0.00 0.00 0.00 29 1015.8
20260506233902 61 329 3.0 9.0 0.00 0.00 0.00 31 1015.9
20260506233400 61 316 4.0 13.0 0.00 0.00 0.00 30 1015.9
20260506232900 61 311 4.0 13.0 0.00 0.00 0.00 30 1015.9
20260506232401 62 337 4.0 10.0 0.00 0.00 0.00 29 1015.9
20260506231901 62 259 4.0 10.0 0.00 0.00 0.00 31 1015.9
20260506231401 61 261 3.0 8.0 0.00 0.00 0.00 33 1016.0
20260506230905 60 267 3.0 9.0 0.00 0.00 0.00 32 1016.0
20260506230901 61 330 4.0 9.0 0.00 0.00 0.00 30 1016.0
20260506225901 59 313 2.0 5.0 0.00 0.00 0.00 32 1016.1
20260506225400 59 310 2.0 6.0 0.00 0.00 0.00 32 1016.1
20260506224904 59 314 2.0 6.0 0.00 0.00 0.00 33 1016.2
20260506224636 59 353 2.0 5.0 0.00 0.00 0.00 32 1016.2
20260506223904 59 317 2.0 5.0 0.00 0.00 0.00 31 1016.1
20260506223403 59 255 2.0 7.0 0.00 0.00 0.00 33 1016.2
20260506223135 60 349 3.0 7.0 0.00 0.00 0.00 31 1016.2
20260506222403 60 313 4.0 10.0 0.00 0.00 0.00 30 1016.2
20260506221903 61 335 4.0 10.0 0.00 0.00 0.00 29 1016.2
20260506221403 61 293 2.0 8.0 0.00 0.00 0.00 32 1016.3
20260506220907 59 324 2.0 5.0 0.00 0.00 0.00 32 1016.4
20260506220903 60 322 2.0 5.0 0.00 0.00 0.00 37 1016.3
20260506215857 59 285 2.0 6.0 0.00 0.00 0.00 34 1016.4
20260506215351 59 330 2.0 6.0 0.00 0.00 0.00 33 1016.6
20260506215347 59 274 2.0 9.0 0.00 0.00 0.00 33 1016.7
20260506214345 59 324 3.0 9.0 0.00 0.00 0.00 32 1016.6
20260506214113 59 310 3.0 9.0 0.00 0.00 0.00 33 1016.7
20260506213343 59 269 4.0 9.0 0.00 0.00 0.00 33 1016.7
20260506212843 59 343 3.0 9.0 0.00 0.00 0.00 32 1016.8
20260506212343 59 324 4.0 10.0 0.00 0.00 0.00 32 1016.8
20260506211840 59 323 3.0 10.0 0.00 0.00 0.00 33 1016.8
20260506211341 59 26 3.0 6.0 0.00 0.00 0.00 35 1016.8
20260506210839 59 354 3.0 8.0 0.00 0.00 0.00 33 1016.9
20260506210610 59 227 4.0 8.0 0.00 0.00 0.00 32 1017.1
20260506210110 60 314 5.0 13.0 0.00 0.00 0.00 33 1017.1
20260506210054 60 297 4.0 13.0 0.00 0.00 0.00 33 1017.2
20260506205553 60 11 3.0 10.0 0.00 0.00 0.00 32 1017.2
20260506204337 61 326 5.0 10.0 0.00 0.00 0.00 30 1017.4
20260506203837 61 324 5.0 13.0 0.00 0.00 0.00 31 1017.5
20260506203337 61 326 3.0 9.0 0.00 0.00 0.00 34 1017.4
20260506202831 60 297 4.0 10.0 0.00 0.00 0.00 33 1017.5
20260506202331 60 337 4.0 10.0 0.00 0.00 0.00 32 1017.5
20260506201831 60 327 4.0 15.0 0.00 0.00 0.00 34 1017.5
20260506201331 60 300 5.0 15.0 0.00 0.00 0.00 34 1017.7
20260506200830 60 316 4.0 12.0 0.00 0.00 0.00 33 1017.7
20260506200331 60 250 4.0 14.0 0.00 0.00 0.00 32 1017.7
20260506195831 60 314 4.0 14.0 0.00 0.00 0.00 34 1017.8
20260506195330 59 333 3.0 7.0 0.00 0.00 0.00 33 1017.8
20260506194831 59 224 4.0 8.0 0.00 0.00 0.00 34 1017.9
20260506194330 59 311 4.0 11.0 0.00 0.00 0.00 34 1018.0
20260506193831 59 296 4.0 11.0 0.00 0.00 0.00 35 1017.9
20260506193330 59 329 2.0 8.0 0.00 0.00 0.00 32 1018.0
20260506192831 59 240 2.0 6.0 0.00 0.00 0.00 32 1018.0
20260506192330 59 319 3.0 10.0 0.00 0.00 0.00 34 1018.0
20260506191830 58 6 4.0 10.0 0.00 0.00 0.00 34 1018.0
20260506191329 59 311 5.0 11.0 0.00 0.00 0.00 34 1017.9
20260506191100 59 328 5.0 11.0 0.00 0.00 0.00 35 1018.0
20260506190329 59 334 4.0 14.0 0.00 0.00 0.00 33 1017.9
20260506185829 59 336 4.0 14.0 0.00 0.00 0.00 34 1018.1
20260506185329 58 250 4.0 12.0 0.00 0.00 0.00 36 1018.1
20260506184828 58 330 4.0 12.0 0.00 0.00 0.00 33 1018.2
20260506184328 58 323 2.0 10.0 0.00 0.00 0.00 35 1018.2
20260506183829 58 345 3.0 12.0 0.00 0.00 0.00 37 1018.1
20260506183559 57 330 4.0 12.0 0.00 0.00 0.00 33 1018.3
20260506182828 58 37 4.0 10.0 0.00 0.00 0.00 36 1018.3
20260506182328 59 286 4.0 9.0 0.00 0.00 0.00 33 1018.3
20260506181827 59 330 3.0 8.0 0.00 0.00 0.00 36 1018.4
20260506181326 59 257 2.0 7.0 0.00 0.00 0.00 34 1018.5
20260506181055 58 267 3.0 10.0 0.00 0.00 0.00 37 1018.6
20260506180324 58 11 3.0 10.0 0.00 0.00 0.00 35 1018.6
20260506175823 58 330 3.0 8.0 0.00 0.00 0.00 33 1018.6
20260506175322 58 279 3.0 8.0 0.00 0.00 0.00 36 1018.7
20260506174821 58 331 4.0 17.0 0.00 0.00 0.00 39 1018.8
20260506174320 58 276 4.0 17.0 0.00 0.00 0.00 34 1018.8
20260506173819 57 1 4.0 11.0 0.00 0.00 0.00 37 1018.8
20260506173319 57 207 4.0 14.0 0.00 0.00 0.00 36 1018.9
20260506172819 57 304 3.0 14.0 0.00 0.00 0.00 36 1019.0
20260506172318 56 192 2.0 8.0 0.00 0.00 0.00 38 1019.1
20260506171819 56 352 3.0 8.0 0.00 0.00 0.00 38 1019.1
20260506171316 56 345 4.0 11.0 0.00 0.00 0.00 38 1019.1
20260506170816 55 324 5.0 11.0 0.00 0.00 0.00 37 1019.2
20260506170316 56 334 5.0 11.0 0.00 0.00 0.00 35 1019.2
20260506165812 56 337 5.0 13.0 0.00 0.00 0.00 35 1019.2
20260506165312 56 328 4.0 13.0 0.00 0.00 0.00 35 1019.3
20260506164812 56 329 3.0 9.0 0.00 0.00 0.00 40 1019.4
20260506164312 55 359 3.0 8.0 0.00 0.00 0.00 40 1019.3
20260506164041 56 290 3.0 8.0 0.00 0.00 0.00 40 1019.6
20260506163310 56 316 2.0 7.0 0.00 0.00 0.00 37 1019.3
20260506163041 55 102 3.0 9.0 0.00 0.00 0.00 38 1019.3
20260506162308 55 335 3.0 10.0 0.00 0.00 0.00 38 1019.4
20260506161808 55 341 3.0 10.0 0.00 0.00 0.00 38 1019.6
20260506161308 54 352 3.0 10.0 0.00 0.00 0.00 38 1019.4
20260506160806 54 18 4.0 10.0 0.00 0.00 0.00 38 1019.6
20260506160306 54 323 4.0 10.0 0.00 0.00 0.00 41 1019.4
20260506155806 54 253 4.0 10.0 0.00 0.00 0.00 37 1019.4
20260506155308 53 313 4.0 11.0 0.00 0.00 0.00 38 1019.3
20260506155035 54 329 3.0 11.0 0.00 0.00 0.00 39 1019.3
20260506154303 54 334 2.0 6.0 0.00 0.00 0.00 38 1019.3
20260506153803 54 38 2.0 4.0 0.00 0.00 0.00 41 1019.3
20260506153534 53 297 2.0 6.0 0.00 0.00 0.00 43 1019.4
20260506152804 53 321 2.0 6.0 0.00 0.00 0.00 39 1019.3
20260506152305 53 347 2.0 5.0 0.00 0.00 0.00 41 1019.3
20260506151804 52 248 2.0 7.0 0.00 0.00 0.00 44 1019.3
20260506151534 52 34 2.0 7.0 0.00 0.00 0.00 41 1019.3
20260506150803 52 348 2.0 6.0 0.00 0.00 0.00 41 1019.3
20260506150304 52 335 2.0 6.0 0.00 0.00 0.00 43 1019.3
20260506145803 51 325 2.0 6.0 0.00 0.00 0.00 44 1019.2
20260506145305 52 335 1.0 4.0 0.00 0.00 0.00 41 1019.2
20260506144804 51 317 1.0 4.0 0.00 0.00 0.00 42 1019.2
20260506144304 51 338 1.0 4.0 0.00 0.00 0.00 43 1019.3
20260506144034 51 323 1.0 3.0 0.00 0.00 0.00 46 1019.3
20260506143304 51 271 1.0 4.0 0.00 0.00 0.00 45 1019.3
20260506142807 51 335 1.0 4.0 0.00 0.00 0.00 44 1019.3
20260506142803 51 47 1.0 4.0 0.00 0.00 0.00 44 1019.3
20260506141801 51 71 1.0 3.0 0.00 0.00 0.00 45 1019.3
20260506141301 51 293 0.0 2.0 0.00 0.00 0.00 46 1019.3
20260506140801 50 359 1.0 3.0 0.00 0.00 0.00 46 1019.3
20260506140301 50 67 1.0 3.0 0.00 0.00 0.00 45 1019.2
20260506140032 50 346 0.0 3.0 0.00 0.00 0.00 46 1019.2
20260506135300 49 324 0.0 3.0 0.00 0.00 0.00 48 1019.1
20260506134801 49 333 0.0 2.0 0.00 0.00 0.00 48 1019.1
20260506134301 48 72 1.0 4.0 0.00 0.00 0.00 49 1019.0
20260506133801 47 321 1.0 4.0 0.00 0.00 0.00 52 1019.1
20260506133301 47 332 1.0 2.0 0.00 0.00 0.00 51 1019.0
20260506132801 47 324 1.0 2.0 0.00 0.00 0.00 50 1018.9
20260506132300 46 330 1.0 2.0 0.00 0.00 0.00 52 1018.8
20260506131802 46 342 1.0 3.0 0.00 0.00 0.00 54 1018.8
20260506131301 45 326 1.0 3.0 0.00 0.00 0.00 54 1018.8
20260506130801 45 316 1.0 2.0 0.00 0.00 0.00 54 1018.7
20260506130301 45 316 0.0 2.0 0.00 0.00 0.00 54 1018.6
20260506125801 44 316 0.0 2.0 0.00 0.00 0.00 56 1018.5
20260506125531 44 312 0.0 2.0 0.00 0.00 0.00 58 1018.5
20260506125036 44 321 0.0 2.0 0.00 0.00 0.00 59 1018.4
20260506124304 43 321 0.0 2.0 0.00 0.00 0.00 59 1018.3
20260506123803 43 321 0.0 2.0 0.00 0.00 0.00 60 1018.3
20260506123303 42 322 0.0 1.0 0.00 0.00 0.00 62 1018.2
20260506122804 42 322 0.0 1.0 0.00 0.00 0.00 62 1018.1
20260506122302 41 322 0.0 1.0 0.00 0.00 0.00 63 1018.0
20260506121801 41 322 0.0 1.0 0.00 0.00 0.00 63 1017.9
20260506121305 40 322 0.0 0.0 0.00 0.00 0.00 66 1017.8
20260506121301 40 322 0.0 1.0 0.00 0.00 0.00 64 1017.9
20260506120300 40 322 0.0 0.0 0.00 0.00 0.00 66 1017.7
20260506115801 39 322 0.0 0.0 0.00 0.00 0.00 67 1017.7
20260506115301 38 322 0.0 0.0 0.00 0.00 0.00 68 1017.6
20260506114801 38 322 0.0 0.0 0.00 0.00 0.00 69 1017.5
20260506114301 37 322 0.0 0.0 0.00 0.00 0.00 70 1017.5